| time (UTC) | temp F | wind direction | speed knots | gust knots | rain 1hr in | rain 24hr in | rain mn in | humidity % | barometer mb |
| 20260508100040 | 60 | 311 | 2.6 | 7.8 | 0.02 | 0.19 | 0.02 | 66 | 1015.3 |
| 20260508094537 | 59 | 0 | 0.0 | 2.6 | 0.02 | 0.19 | 0.02 | 67 | 1015.0 |
| 20260508093037 | 59 | 270 | 0.0 | 4.3 | 0.01 | 0.18 | 0.01 | 66 | 1015.0 |
| 20260508091534 | 59 | 343 | 1.7 | 3.5 | 0.00 | 0.17 | 0.00 | 67 | 1015.5 |
| 20260508090045 | 58 | 317 | 0.9 | 2.6 | 0.00 | 0.17 | 0.00 | 67 | 1015.2 |
| 20260508084537 | 58 | 87 | 0.9 | 1.7 | 0.00 | 0.17 | 0.00 | 67 | 1014.9 |
| 20260508083039 | 58 | 0 | 0.0 | 3.5 | 0.00 | 0.17 | 0.00 | 67 | 1014.5 |
| 20260508081539 | 58 | 82 | 2.6 | 6.1 | 0.00 | 0.17 | 0.00 | 67 | 1014.6 |
| 20260508080033 | 58 | 0 | 0.0 | 0.9 | 0.00 | 0.17 | 0.00 | 67 | 1014.1 |
| 20260508074534 | 58 | 0 | 0.0 | 1.7 | 0.00 | 0.17 | 0.00 | 67 | 1014.1 |
| 20260508073039 | 58 | 134 | 0.0 | 3.5 | 0.00 | 0.17 | 0.00 | 67 | 1013.9 |
| 20260508071540 | 58 | 0 | 0.0 | 0.0 | 0.00 | 0.17 | 0.00 | 67 | 1013.7 |
| 20260508070038 | 58 | 0 | 0.0 | 0.0 | 0.00 | 0.17 | 0.00 | 67 | 1013.7 |
| 20260508064556 | 57 | 0 | 0.0 | 0.0 | 0.00 | 0.17 | 0.00 | 67 | 1013.5 |
| 20260508063033 | 56 | 0 | 0.0 | 0.0 | 0.00 | 0.17 | 0.00 | 67 | 1013.6 |
| 20260508061534 | 56 | 0 | 0.0 | 0.0 | 0.00 | 0.17 | 0.00 | 66 | 1013.4 |
| 20260508060041 | 56 | 0 | 0.0 | 0.0 | 0.00 | 0.17 | 0.00 | 66 | 1013.0 |
| 20260508054603 | 56 | 292 | 0.9 | 2.6 | 0.00 | 0.17 | 0.00 | 67 | 1012.7 |
| 20260508053037 | 56 | 0 | 0.9 | 6.1 | 0.00 | 0.17 | 0.00 | 67 | 1012.7 |
| 20260508051537 | 56 | 0 | 0.0 | 2.6 | 0.00 | 0.17 | 0.00 | 67 | 1012.8 |
| 20260508050038 | 56 | 320 | 0.9 | 2.6 | 0.00 | 0.17 | 0.00 | 67 | 1012.5 |
| 20260508044537 | 55 | 0 | 0.0 | 2.6 | 0.00 | 0.17 | 0.00 | 67 | 1012.4 |
| 20260508043044 | 55 | 0 | 0.0 | 0.0 | 0.00 | 0.17 | 0.00 | 66 | 1012.1 |
| 20260508041538 | 55 | 0 | 0.0 | 0.0 | 0.00 | 0.17 | 0.00 | 65 | 1012.3 |
| 20260508040045 | 56 | 0 | 0.0 | 2.6 | 0.00 | 0.17 | 0.00 | 64 | 1012.2 |
| 20260508034535 | 56 | 71 | 1.7 | 4.3 | 0.00 | 0.17 | 0.00 | 63 | 1011.8 |
| 20260508033034 | 59 | 30 | 0.9 | 6.1 | 0.00 | 0.17 | 0.00 | 62 | 1011.9 |
| 20260508031549 | 59 | 296 | 4.3 | 8.7 | 0.00 | 0.17 | 0.00 | 62 | 1012.0 |
| 20260508030039 | 58 | 274 | 3.5 | 9.6 | 0.00 | 0.17 | 0.00 | 64 | 1012.4 |
| 20260508024535 | 58 | 279 | 3.5 | 8.7 | 0.00 | 0.17 | 0.00 | 66 | 1012.4 |
| 20260508023034 | 58 | 266 | 3.5 | 7.8 | 0.00 | 0.17 | 0.00 | 67 | 1012.4 |
| 20260508021541 | 57 | 288 | 3.5 | 8.7 | 0.00 | 0.17 | 0.00 | 68 | 1012.6 |
| 20260508020033 | 57 | 283 | 3.5 | 7.8 | 0.00 | 0.17 | 0.00 | 69 | 1012.6 |
| 20260508014534 | 56 | 290 | 2.6 | 5.2 | 0.00 | 0.17 | 0.00 | 68 | 1012.8 |
| 20260508013040 | 56 | 298 | 3.5 | 7.0 | 0.00 | 0.17 | 0.00 | 68 | 1013.0 |
| 20260508011541 | 57 | 287 | 2.6 | 7.0 | 0.00 | 0.17 | 0.00 | 68 | 1013.1 |
| 20260508010039 | 58 | 282 | 2.6 | 6.1 | 0.00 | 0.17 | 0.00 | 68 | 1013.2 |
| 20260508004540 | 58 | 0 | 0.0 | 2.6 | 0.00 | 0.17 | 0.00 | 68 | 1013.5 |
| 20260508003032 | 57 | 290 | 2.6 | 6.1 | 0.00 | 0.17 | 0.00 | 68 | 1013.9 |
| 20260508001539 | 57 | 0 | 1.7 | 5.2 | 0.00 | 0.17 | 0.00 | 68 | 1014.0 |
| 20260508000037 | 58 | 301 | 0.9 | 2.6 | 0.00 | 0.17 | 0.00 | 67 | 1014.1 |
| 20260507234544 | 58 | 279 | 2.6 | 6.1 | 0.00 | 0.17 | 0.00 | 68 | 1014.3 |
| 20260507233037 | 58 | 298 | 2.6 | 4.3 | 0.00 | 0.17 | 0.00 | 68 | 1014.4 |
| 20260507231542 | 58 | 279 | 2.6 | 7.8 | 0.00 | 0.17 | 0.00 | 68 | 1014.5 |
| 20260507230034 | 58 | 276 | 3.5 | 7.8 | 0.00 | 0.17 | 0.00 | 67 | 1014.4 |
| 20260507224533 | 58 | 258 | 3.5 | 6.1 | 0.00 | 0.17 | 0.00 | 67 | 1014.4 |
| 20260507223032 | 58 | 286 | 1.7 | 5.2 | 0.00 | 0.17 | 0.00 | 67 | 1014.4 |
| 20260507221535 | 59 | 288 | 4.3 | 7.0 | 0.00 | 0.17 | 0.00 | 66 | 1014.3 |
| 20260507220034 | 59 | 271 | 1.7 | 3.5 | 0.00 | 0.17 | 0.00 | 66 | 1014.1 |
| 20260507214540 | 59 | 252 | 0.9 | 2.6 | 0.00 | 0.17 | 0.17 | 65 | 1013.9 |
| 20260507213041 | 60 | 0 | 0.0 | 0.0 | 0.00 | 0.17 | 0.17 | 65 | 1014.0 |
| 20260507211545 | 60 | 0 | 0.0 | 0.9 | 0.00 | 0.17 | 0.17 | 65 | 1013.9 |
| 20260507210034 | 60 | 0 | 0.0 | 5.2 | 0.00 | 0.17 | 0.17 | 65 | 1013.8 |
| 20260507204532 | 60 | 159 | 0.9 | 4.3 | 0.00 | 0.17 | 0.17 | 64 | 1013.8 |
| 20260507203039 | 59 | 139 | 2.6 | 7.8 | 0.00 | 0.17 | 0.17 | 64 | 1013.8 |
| 20260507201538 | 59 | 0 | 0.0 | 7.0 | 0.00 | 0.17 | 0.17 | 65 | 1013.7 |
| 20260507200037 | 60 | 173 | 2.6 | 7.0 | 0.00 | 0.17 | 0.17 | 64 | 1013.7 |
| 20260507194534 | 60 | 191 | 3.5 | 8.7 | 0.00 | 0.17 | 0.17 | 64 | 1013.3 |
| 20260507193035 | 60 | 132 | 2.6 | 7.0 | 0.00 | 0.17 | 0.17 | 64 | 1013.0 |
| 20260507191538 | 61 | 137 | 2.6 | 7.0 | 0.00 | 0.17 | 0.17 | 64 | 1012.8 |
| 20260507190039 | 61 | 140 | 1.7 | 7.0 | 0.00 | 0.17 | 0.17 | 64 | 1012.6 |
| 20260507184535 | 61 | 121 | 3.5 | 7.0 | 0.00 | 0.17 | 0.17 | 63 | 1012.5 |
| 20260507183035 | 61 | 134 | 4.3 | 7.8 | 0.03 | 0.17 | 0.17 | 63 | 1012.2 |
| 20260507181532 | 61 | 144 | 1.7 | 5.2 | 0.14 | 0.17 | 0.17 | 63 | 1012.0 |
| 20260507180033 | 61 | 146 | 1.7 | 7.0 | 0.14 | 0.17 | 0.17 | 64 | 1012.0 |
| 20260507174549 | 61 | 148 | 1.7 | 5.2 | 0.14 | 0.17 | 0.17 | 63 | 1012.2 |
| 20260507173033 | 62 | 0 | 0.9 | 5.2 | 0.11 | 0.14 | 0.14 | 63 | 1012.3 |
| 20260507171542 | 63 | 138 | 0.9 | 7.0 | 0.00 | 0.03 | 0.03 | 62 | 1012.1 |
| 20260507170039 | 63 | 56 | 3.5 | 8.7 | 0.02 | 0.03 | 0.03 | 61 | 1011.7 |
| 20260507164539 | 64 | 15 | 2.6 | 8.7 | 0.03 | 0.03 | 0.03 | 61 | 1011.7 |
| 20260507163037 | 64 | 0 | 1.7 | 5.2 | 0.03 | 0.03 | 0.03 | 61 | 1011.4 |
| 20260507161540 | 64 | 281 | 2.6 | 7.8 | 0.02 | 0.02 | 0.02 | 61 | 1011.1 |
| 20260507160048 | 64 | 260 | 6.1 | 10.4 | 0.00 | 0.00 | 0.00 | 59 | 1011.1 |
| 20260507154539 | 65 | 244 | 5.2 | 10.4 | 0.00 | 0.00 | 0.00 | 58 | 1011.0 |
| 20260507153038 | 66 | 360 | 8.7 | 13.0 | 0.00 | 0.00 | 0.00 | 56 | 1011.0 |
| 20260507151538 | 68 | 194 | 0.9 | 6.1 | 0.00 | 0.00 | 0.00 | 57 | 1011.2 |
| 20260507150039 | 68 | 144 | 1.7 | 6.1 | 0.00 | 0.00 | 0.00 | 56 | 1011.3 |
| 20260507144537 | 67 | 149 | 2.6 | 6.1 | 0.00 | 0.00 | 0.00 | 56 | 1011.1 |
| 20260507143037 | 67 | 239 | 2.6 | 7.0 | 0.00 | 0.00 | 0.00 | 57 | 1011.0 |
| 20260507141538 | 67 | 161 | 6.1 | 10.4 | 0.00 | 0.00 | 0.00 | 56 | 1011.0 |
| 20260507140045 | 67 | 133 | 6.1 | 12.2 | 0.00 | 0.00 | 0.00 | 55 | 1011.0 |
| 20260507134536 | 67 | 140 | 7.0 | 14.8 | 0.00 | 0.00 | 0.00 | 54 | 1011.0 |
| 20260507133034 | 68 | 149 | 7.0 | 13.0 | 0.00 | 0.00 | 0.00 | 52 | 1011.2 |
| 20260507131603 | 69 | 143 | 8.7 | 15.6 | 0.00 | 0.00 | 0.00 | 49 | 1011.1 |
| 20260507130034 | 71 | 132 | 7.0 | 14.8 | 0.00 | 0.00 | 0.00 | 46 | 1011.4 |
| 20260507124549 | 71 | 129 | 5.2 | 10.4 | 0.00 | 0.00 | 0.00 | 46 | 1011.3 |
| 20260507123043 | 70 | 101 | 5.2 | 12.2 | 0.00 | 0.00 | 0.00 | 46 | 1011.5 |
| 20260507121541 | 70 | 48 | 5.2 | 14.8 | 0.00 | 0.00 | 0.00 | 46 | 1011.7 |
| 20260507120039 | 70 | 125 | 6.1 | 13.0 | 0.00 | 0.00 | 0.00 | 46 | 1011.8 |
| 20260507114533 | 69 | 119 | 5.2 | 10.4 | 0.00 | 0.00 | 0.00 | 48 | 1011.7 |
| 20260507113102 | 69 | 57 | 5.2 | 12.2 | 0.00 | 0.00 | 0.00 | 48 | 1011.8 |
| 20260507111536 | 69 | 68 | 6.1 | 11.3 | 0.00 | 0.00 | 0.00 | 49 | 1012.0 |
| 20260507110038 | 69 | 65 | 5.2 | 12.2 | 0.00 | 0.00 | 0.00 | 49 | 1012.0 |
| 20260507104539 | 70 | 90 | 6.1 | 11.3 | 0.00 | 0.00 | 0.00 | 49 | 1012.1 |
| 20260507103038 | 70 | 74 | 4.3 | 13.0 | 0.00 | 0.00 | 0.00 | 49 | 1012.3 |
| 20260507101538 | 70 | 41 | 6.1 | 13.0 | 0.00 | 0.00 | 0.00 | 49 | 1012.2 |